CZ-2C DEB, 40288

Orbit data source: Space-Track

CZ-2C DEB, 40288 is space debris in SSO originally from a launch on Mon, 27 Oct 2014 UTC launched from the Jiuquan Satellite Launch Center, China (JSC). Debris objects in space refer to the collection of defunct objects orbiting the Earth. Examples of debris include non-operational satellites, rocket bodies, and fragments generated from explosions, collisions, or faulty payload assembly.

Loading next visibility...
Identifier
40288, 2014-066C
Orbit
SSO
Last TLE update
9 hours ago
Origin
Manufacturer
CALT
Mission
Spacecraft
Bus & Motor
Unknown
Mass
1 kg wet, 1 kg dry
Launch date (UTC)
2014-10-27 (11 years ago)
Launch vehicle
Unknown
Launch site
Jiuquan Satellite Launch Center, China (JSC)
Object type
Payload
Rocket body
Debris
Shape & HBR
Cone, 0.2 m
Radar Cross Section
0.025 m², Small (<0.1 m²)

Expand to show TLE details & history

TLE from 9 hours ago
0 CZ-2C DEB
1 40288U 14066C   25186.39624801  .00002548  00000-0  86489-3 0  9991
2 40288  97.9352 330.7337 0164483 162.1257 198.5808 14.30061450554631
Epoch: 2025-07-05T09:30Z
TLE epoch observation values (Epoch: 2025-07-05T09:30:35.828Z)
Latitude
0.00001°
Longitude
-95.55048°
Altitude
906.476 km
Speed
7.341 km/s
True Right ascension
22h 02m 56s
True Declination
0° 00' 00"
Sunlit
Object was in full shadow at epoch
Visualization orbit readout
Latitude
17.31771°
Longitude
87.27489°
Altitude
675.959 km
Speed
7.582 km/s
Apparent Right ascension
13h 16m 53s
Apparent Declination
-19° 31' 16"
Sunlit
Object is in daylight
Visualization observer readout
Local Sidereal Time
06:35:12
Azimuth
99.005° ESE
Elevation
-20.192°
Doppler factor
1
Orbital elements
Apogee altitude
906.515 km
Perigee altitude
670.753 km
Semi-major axis
7,166.771 km
Eccentricity
0.01645
Inclination
97.9352°
RAAN
330.7337°
Arg. of periapsis
162.1257°
True anomaly
Unknown
Mean anomaly
198.5808°
Eccentric anomaly
Unknown
Mean motion
3.57732 °/min
Orbital period
100.63 mins
BSTAR
0.00086489
Loading maneuver chart data...
Loading SW <> Apogee altitude chart data...
Loading historical data...
Loading historical data...
Loading historical data...
Loading historical data...
Loading historical data...
Loading historical data...
Loading historical data...
Other satellites on launch #66 in the year 2014 (2014-10-27 UTC)

CZ-2C DEB Visibility forecast

Observer location: undefined°, undefined°

Span
Click to sort rows by Start time (UTC) header in descending order
Start Az.
Max El. time (UTC)
Max El. Az.
Max El.
End time (UTC)
End Az.
7 mins2025-07-05 21:51:37.898Z35.177° NE2025-07-05 21:55:37.898Z106.064° ESE28.542°2025-07-05 21:58:37.898Z156.167° SSE
5 mins2025-07-05 23:32:37.898Z328.585° NNW2025-07-05 23:34:37.898Z294.876° NW20.896°2025-07-05 23:37:37.898Z248.104° W
8 mins2025-07-06 09:09:37.898Z138.523° SSE2025-07-06 09:12:37.898Z90.486° ESE36.913°2025-07-06 09:17:37.898Z0.761° NNE
6 mins2025-07-06 10:50:37.898Z236.22° WSW2025-07-06 10:52:37.898Z263.18° W19.593°2025-07-06 10:56:37.898Z312.981° NW
|